Starlink 4098

operational
NORAD ID: 53153 Int'l Des: 2022-083 Owner: SPXS Country: US Constellation: starlink
LEOCIRCULAR

About Starlink 4098

Description loading...

Live Position

Loading 3D Globe...

Upcoming Passes

Altitude History

Altitude vs Time

uPlot chart will show altitude changes over time

Two-Line Element Set

1 53153U 22083X 26020.30928990 .00000921 00000-0 75935-4 0 9997
2 53153 53.2186 21.3087 0001552 97.8090 262.3079 15.08843424194058
Epoch: Jan 20, 2026 • Age: 12 hours

Current Status

Altitude 544.8 km
Velocity 7.60 km/s
Sub-Earth Point 51.49°N, 84.78°E
Launch Date Jul 17, 2022
Age 3.5 years
Type internet

Technical Details

Classification Payload
Mass 297.00 kg
Dry Mass 275.00 kg
Total Mass 297.00 kg
Length 0.20 m
Diameter 2.80 m
Span 9.00 m
Shape Box + pan
Manufacturer SPXS
Bus Type Starlink
Phase Status In Orbit
Owner/State SPXS/US

Large Constellations

Loading constellations...